TimeMST,TemperatureF,Dew PointF,Humidity,Sea Level PressureIn,VisibilityMPH,Wind Direction,Wind SpeedMPH,Gust SpeedMPH,PrecipitationIn,Events,Conditions,WindDirDegrees,DateUTC
12:52 AM,34.0,12.9,42,30.25,10.0,North,10.4,-,N/A,,Clear,360,2013-01-21 07:52:00
1:52 AM,30.0,10.9,45,30.27,10.0,North,9.2,-,N/A,,Clear,10,2013-01-21 08:52:00
2:52 AM,30.9,10.9,43,30.25,10.0,North,8.1,-,N/A,,Clear,350,2013-01-21 09:52:00
3:52 AM,28.0,10.9,49,30.27,10.0,North,9.2,-,N/A,,Clear,10,2013-01-21 10:52:00
4:52 AM,23.0,9.0,55,30.29,10.0,Calm,Calm,-,N/A,,Clear,0,2013-01-21 11:52:00
5:52 AM,19.9,6.1,55,30.32,10.0,NE,3.5,-,N/A,,Clear,50,2013-01-21 12:52:00
6:52 AM,21.9,9.0,58,30.32,10.0,NNE,4.6,-,N/A,,Partly Cloudy,20,2013-01-21 13:52:00
7:52 AM,26.1,10.0,51,30.33,10.0,North,11.5,-,N/A,,Partly Cloudy,10,2013-01-21 14:52:00
8:52 AM,28.9,10.0,45,30.34,10.0,North,6.9,-,N/A,,Partly Cloudy,350,2013-01-21 15:52:00
9:52 AM,30.9,10.0,42,30.37,10.0,NNW,8.1,-,N/A,,Partly Cloudy,340,2013-01-21 16:52:00
10:52 AM,37.9,10.9,33,30.34,10.0,North,4.6,-,N/A,,Partly Cloudy,360,2013-01-21 17:52:00
11:52 AM,44.1,10.9,26,30.29,10.0,Variable,6.9,-,N/A,,Partly Cloudy,0,2013-01-21 18:52:00
12:52 PM,46.9,10.9,23,30.25,10.0,NW,5.8,-,N/A,,Clear,310,2013-01-21 19:52:00
1:52 PM,50.0,10.9,21,30.22,10.0,NNE,4.6,-,N/A,,Clear,20,2013-01-21 20:52:00
2:52 PM,51.1,10.0,19,30.20,10.0,NW,5.8,-,N/A,,Clear,310,2013-01-21 21:52:00
3:52 PM,53.1,10.9,19,30.19,10.0,Calm,Calm,-,N/A,,Clear,0,2013-01-21 22:52:00
4:52 PM,52.0,10.0,19,30.20,10.0,Calm,Calm,-,N/A,,Clear,0,2013-01-21 23:52:00
5:52 PM,46.9,10.0,22,30.24,10.0,North,5.8,-,N/A,,Partly Cloudy,10,2013-01-22 00:52:00
6:52 PM,46.0,9.0,22,30.26,10.0,NNW,8.1,-,N/A,,Clear,340,2013-01-22 01:52:00
7:52 PM,43.0,10.0,26,30.26,10.0,North,6.9,-,N/A,,Clear,350,2013-01-22 02:52:00
8:52 PM,42.1,15.1,34,30.27,10.0,NNW,6.9,-,N/A,,Clear,340,2013-01-22 03:52:00
9:52 PM,39.9,16.0,38,30.28,10.0,NNW,9.2,-,N/A,,Clear,340,2013-01-22 04:52:00
10:52 PM,37.0,17.1,44,30.28,10.0,NNE,9.2,-,N/A,,Clear,30,2013-01-22 05:52:00
11:52 PM,36.0,16.0,44,30.26,10.0,NNE,10.4,-,N/A,,Clear,20,2013-01-22 06:52:00